カタログに戻る

SL-16 DEB

運用中LEO
NORAD 22343·DEBRIS·🇷🇺 Russia

打ち上げ Dec 25, 1992 から Baikonur Cosmodrome

Loading…

次のパス (今後24時間)

TLE

最新Source: Space-Track

元期: Sep 14, 2026, 13:27 UTC

1 22343U 92093AG  26257.56066950  .00000103  00000-0  78464-4 0  9993
2 22343  70.9468 289.2400 0092878  45.8703 115.7477 14.12141471728821

AllMySatでSL-16 DEBをリアルタイム追跡

Download on the App Store